• In Uzbekistan
  • List of Countries
  • For 7 days
  • Water Temperature
  • Satellite Maps
  • Weather Map
  • Weather Widgets
  • user-avatar
    Login

    Hourly Weather Paralia

    Today, 25 September, Monday

    Time Temperature Precipitation Wind Pressure Humidity
    00:00 +21°C° 0 mm 1 mps 750 mmHg 69%
    01:00 +21°C° 0 mm 1 mps 750 mmHg 70%
    02:00 +20°C° 0 mm 1 mps 749 mmHg 71%
    03:00 +20°C° 0 mm 1 mps 749 mmHg 72%
    04:00 +20°C° 0 mm 1 mps 749 mmHg 72%
    05:00 +21°C° 0 mm 1 mps 749 mmHg 69%
    06:00 +21°C° 0 mm 1 mps 749 mmHg 65%
    07:00 +21°C° 0 mm 2 mps 749 mmHg 62%
    08:00 +24°C° 0 mm 2 mps 749 mmHg 55%
    09:00 +25°C° 0 mm 2 mps 749 mmHg 48%
    10:00 +27°C° 0 mm 2 mps 749 mmHg 40%
    11:00 +27°C° 0 mm 2 mps 749 mmHg 41%
    12:00 +27°C° 0 mm 3 mps 749 mmHg 41%
    13:00 +27°C° 0 mm 3 mps 749 mmHg 42%
    14:00 +26°C° 0.7 mm 3 mps 749 mmHg 48%
    15:00 +25°C° 0.7 mm 2 mps 749 mmHg 53%
    16:00 +24°C° 0.7 mm 2 mps 749 mmHg 59%
    17:00 +23°C° 0.6 mm 1 mps 749 mmHg 64%
    18:00 +22°C° 0.6 mm 1 mps 749 mmHg 69%
    19:00 +21°C° 0.6 mm 1 mps 749 mmHg 74%
    20:00 +21°C° 0.1 mm 1 mps 749 mmHg 76%
    21:00 +20°C° 0.1 mm 1 mps 749 mmHg 78%
    22:00 +18°C° 0.1 mm 0 mps 749 mmHg 80%
    23:00 +18°C° 0 mm 0 mps 749 mmHg 81%

    Tomorrow, 26 September, Tuesday

    Time Temperature Precipitation Wind Pressure Humidity
    00:00 +17°C° 0 mm 0 mps 749 mmHg 82%
    01:00 +17°C° 0 mm 0 mps 749 mmHg 83%
    02:00 +19°C° 0 mm 1 mps 749 mmHg 84%
    03:00 +18°C° 0 mm 1 mps 749 mmHg 85%
    04:00 +18°C° 0 mm 1 mps 748 mmHg 85%
    05:00 +19°C° 0 mm 1 mps 749 mmHg 81%
    06:00 +20°C° 0 mm 1 mps 749 mmHg 77%
    07:00 +21°C° 0 mm 1 mps 749 mmHg 73%
    08:00 +23°C° 0 mm 1 mps 749 mmHg 66%
    09:00 +24°C° 0 mm 1 mps 750 mmHg 58%
    10:00 +26°C° 0 mm 1 mps 750 mmHg 50%
    11:00 +26°C° 0 mm 2 mps 750 mmHg 49%
    12:00 +26°C° 0 mm 2 mps 749 mmHg 48%
    13:00 +27°C° 0 mm 2 mps 749 mmHg 47%
    14:00 +26°C° 0.1 mm 2 mps 749 mmHg 50%
    15:00 +25°C° 0.1 mm 2 mps 749 mmHg 53%
    16:00 +25°C° 0.1 mm 2 mps 749 mmHg 56%
    17:00 +24°C° 0.1 mm 2 mps 750 mmHg 62%
    18:00 +23°C° 0.1 mm 1 mps 750 mmHg 69%
    19:00 +21°C° 0.1 mm 1 mps 750 mmHg 75%
    20:00 +21°C° 0 mm 1 mps 750 mmHg 78%
    21:00 +20°C° 0 mm 1 mps 751 mmHg 81%
    22:00 +18°C° 0 mm 0 mps 751 mmHg 84%
    23:00 +20°C° 0 mm 1 mps 751 mmHg 85%

    Day after tomorrow, 27 September, Wednesday

    Time Temperature Precipitation Wind Pressure Humidity
    00:00 +19°C° 0 mm 1 mps 751 mmHg 86%
    01:00 +19°C° 0 mm 1 mps 751 mmHg 87%
    02:00 +19°C° 0 mm 1 mps 751 mmHg 88%
    03:00 +19°C° 0 mm 1 mps 751 mmHg 88%
    04:00 +19°C° 0 mm 1 mps 751 mmHg 88%
    05:00 +19°C° 0 mm 1 mps 751 mmHg 83%
    06:00 +20°C° 0 mm 1 mps 751 mmHg 78%
    07:00 +21°C° 0 mm 1 mps 752 mmHg 73%
    08:00 +23°C° 0 mm 1 mps 752 mmHg 65%
    09:00 +25°C° 0 mm 1 mps 752 mmHg 56%
    10:00 +27°C° 0 mm 1 mps 752 mmHg 47%
    11:00 +27°C° 0 mm 1 mps 752 mmHg 45%
    12:00 +28°C° 0 mm 2 mps 752 mmHg 43%
    13:00 +28°C° 0 mm 2 mps 752 mmHg 41%
    14:00 +27°C° 0 mm 2 mps 752 mmHg 45%
    15:00 +27°C° 0 mm 2 mps 752 mmHg 48%
    16:00 +26°C° 0 mm 2 mps 752 mmHg 51%
    17:00 +25°C° 0 mm 2 mps 752 mmHg 56%
    18:00 +23°C° 0 mm 1 mps 752 mmHg 62%
    19:00 +22°C° 0 mm 1 mps 752 mmHg 68%
    20:00 +22°C° 0 mm 1 mps 752 mmHg 69%
    21:00 +21°C° 0 mm 1 mps 753 mmHg 71%
    22:00 +21°C° 0 mm 1 mps 753 mmHg 73%
    23:00 +20°C° 0 mm 1 mps 753 mmHg 74%

    28 September, Thursday

    Time Temperature Precipitation Wind Pressure Humidity
    00:00 +20°C° 0 mm 1 mps 753 mmHg 75%
    01:00 +20°C° 0 mm 1 mps 752 mmHg 77%
    02:00 +20°C° 0 mm 1 mps 752 mmHg 78%
    03:00 +18°C° 0 mm 2 mps 752 mmHg 80%
    04:00 +18°C° 0 mm 2 mps 752 mmHg 81%
    05:00 +19°C° 0 mm 2 mps 752 mmHg 79%
    06:00 +20°C° 0 mm 2 mps 752 mmHg 76%
    07:00 +20°C° 0 mm 2 mps 752 mmHg 73%
    08:00 +23°C° 0.3 mm 2 mps 753 mmHg 66%
    09:00 +24°C° 0.3 mm 2 mps 753 mmHg 60%
    10:00 +26°C° 0.3 mm 1 mps 753 mmHg 53%
    11:00 +26°C° 0.5 mm 2 mps 753 mmHg 55%
    12:00 +25°C° 0.5 mm 2 mps 752 mmHg 57%
    13:00 +25°C° 0.5 mm 3 mps 752 mmHg 59%
    14:00 +24°C° 0.5 mm 3 mps 752 mmHg 61%
    15:00 +24°C° 0.5 mm 3 mps 752 mmHg 63%
    16:00 +22°C° 0.5 mm 3 mps 752 mmHg 65%
    17:00 +21°C° 0.1 mm 3 mps 752 mmHg 68%
    18:00 +20°C° 0.1 mm 3 mps 752 mmHg 71%
    19:00 +19°C° 0.1 mm 2 mps 752 mmHg 75%
    20:00 +19°C° 0 mm 2 mps 752 mmHg 75%
    21:00 +18°C° 0 mm 2 mps 752 mmHg 76%
    22:00 +18°C° 0 mm 2 mps 752 mmHg 77%
    23:00 +18°C° 0 mm 2 mps 752 mmHg 77%

    29 September, Friday

    Time Temperature Precipitation Wind Pressure Humidity
    00:00 +18°C° 0 mm 2 mps 752 mmHg 77%
    01:00 +17°C° 0 mm 2 mps 752 mmHg 77%
    02:00 +17°C° 0.1 mm 2 mps 752 mmHg 78%
    03:00 +17°C° 0.1 mm 2 mps 751 mmHg 79%
    04:00 +17°C° 0.1 mm 2 mps 751 mmHg 79%
    05:00 +18°C° 0.1 mm 2 mps 751 mmHg 78%
    06:00 +18°C° 0.1 mm 2 mps 751 mmHg 77%
    07:00 +18°C° 0.1 mm 2 mps 751 mmHg 76%
    08:00 +20°C° 0 mm 2 mps 751 mmHg 70%
    09:00 +21°C° 0 mm 2 mps 751 mmHg 64%
    10:00 +23°C° 0 mm 2 mps 751 mmHg 59%
    11:00 +23°C° 0 mm 2 mps 751 mmHg 57%
    12:00 +24°C° 0 mm 2 mps 751 mmHg 55%
    13:00 +24°C° 0 mm 2 mps 751 mmHg 53%
    14:00 +24°C° 0.1 mm 2 mps 751 mmHg 55%
    15:00 +23°C° 0.1 mm 2 mps 750 mmHg 57%
    16:00 +22°C° 0.1 mm 1 mps 750 mmHg 59%
    17:00 +20°C° 0 mm 2 mps 751 mmHg 63%
    18:00 +19°C° 0 mm 2 mps 751 mmHg 67%
    19:00 +18°C° 0 mm 2 mps 751 mmHg 71%
    20:00 +18°C° 0 mm 2 mps 751 mmHg 73%
    21:00 +18°C° 0 mm 2 mps 751 mmHg 74%
    22:00 +17°C° 0 mm 2 mps 751 mmHg 76%
    23:00 +17°C° 0 mm 2 mps 751 mmHg 76%

    30 September, Saturday

    Time Temperature Precipitation Wind Pressure Humidity
    00:00 +17°C° 0 mm 2 mps 750 mmHg 76%
    01:00 +17°C° 0 mm 2 mps 750 mmHg 77%
    02:00 +16°C° 0 mm 2 mps 750 mmHg 77%
    03:00 +16°C° 0 mm 2 mps 750 mmHg 78%
    04:00 +16°C° 0 mm 2 mps 750 mmHg 79%
    05:00 +17°C° 0 mm 2 mps 750 mmHg 77%
    06:00 +17°C° 0 mm 2 mps 750 mmHg 75%
    07:00 +18°C° 0 mm 2 mps 750 mmHg 73%
    08:00 +19°C° 0 mm 2 mps 750 mmHg 67%
    09:00 +21°C° 0 mm 2 mps 750 mmHg 61%
    10:00 +23°C° 0 mm 1 mps 750 mmHg 55%
    11:00 +23°C° 0.1 mm 2 mps 750 mmHg 55%
    12:00 +23°C° 0.1 mm 2 mps 750 mmHg 56%
    13:00 +23°C° 0.1 mm 2 mps 750 mmHg 56%
    14:00 +21°C° 0.5 mm 2 mps 749 mmHg 59%
    15:00 +21°C° 0.5 mm 2 mps 749 mmHg 62%
    16:00 +20°C° 0.5 mm 2 mps 749 mmHg 64%
    17:00 +20°C° 0.4 mm 1 mps 750 mmHg 68%
    18:00 +20°C° 0.4 mm 1 mps 750 mmHg 72%
    19:00 +19°C° 0.4 mm 1 mps 750 mmHg 75%
    20:00 +19°C° 0.2 mm 1 mps 750 mmHg 77%
    21:00 +18°C° 0.2 mm 1 mps 750 mmHg 78%
    22:00 +18°C° 0.2 mm 1 mps 750 mmHg 79%
    23:00 +18°C° 0.1 mm 1 mps 750 mmHg 80%
    Show more